NOAA 17 DEB, 48183

Orbit data source: Space-Track

NOAA 17 DEB, 48183 is space debris in SSO originally from a launch on Mon, 24 Jun 2002 UTC launched from the Air Force Western Test Range (AFWTR). Debris objects in space refer to the collection of defunct objects orbiting the Earth. Examples of debris include non-operational satellites, rocket bodies, and fragments generated from explosions, collisions, or faulty payload assembly.

Loading next visibility...
Identifier
48183, 2002-032Y
Orbit
SSO
Country
Flag of USUS
Related business
Manufacturer
Unknown
Mission
Spacecraft
Bus & Motor
Unknown
Mass
Unknown
Launch date (UTC)
2002-06-24 (24 years ago)
Launch vehicle
Unknown
Launch site
Air Force Western Test Range (AFWTR)
Object type
Payload
Rocket body
Debris
Shape & HBR
Unknown shape, 0.1 m
Radar Cross Section
Medium (>0.1 m² and <1 m²)

Expand to show TLE details & history
Last TLE update: 3 days ago

TLE from 3 days ago
0 NOAA 17 DEB
1 48183U 02032Y   26170.29768163  .00006727  00000-0  14331-2 0  9995
2 48183  98.7795 173.5089 0010969 152.0842 208.0947 14.59271582274165
Epoch: 2026-06-19T07:08Z
TLE epoch observation values (Epoch: 2026-06-19T07:08:39.692Z)
Latitude
0.00001°
Longitude
158.81484°
Altitude
705.341 km
Speed
7.5 km/s
True Right ascension
11h 34m 02s
True Declination
0° 00' 00"
Sunlit
Object was in daylight at epoch
Visualization orbit readout
Latitude
Unknown
Longitude
Unknown
Altitude
Unknown
Speed
Unknown
Apparent Right ascension
Unknown
Apparent Declination
Unknown
Sunlit
N/A
Visualization observer readout
Local Sidereal Time
21:37:13
Azimuth
Unknown
Elevation
Unknown
Doppler factor
Unknown
Orbital elements
Apogee altitude
700.393 km
Perigee altitude
684.881 km
Semi-major axis
7,070.774 km
Eccentricity
0.0011
Inclination
98.7795°
RAAN
173.5089°
Arg. of periapsis
152.0842°
True anomaly
208.03558°
Mean anomaly
208.0947°
Eccentric anomaly
208.06513°
Mean motion
3.65042 °/min
Orbital period
98.62 mins
BSTAR
0.0014331
Loading maneuver chart data...
Computing Atmospheric mass density...

Documentation

Showing up to 5 results
|